| time (UTC) | temp F | wind direction | speed knots | gust knots | rain 1hr in | rain 24hr in | rain mn in | humidity % | barometer mb |
| 20260506045031 | 67 | 0 | 0.0 | 4.3 | 0.00 | 0.00 | 0.00 | 71 | 1010.3 |
| 20260506044541 | 67 | 0 | 0.0 | 4.3 | 0.00 | 0.00 | 0.00 | 71 | 1010.3 |
| 20260506044029 | 67 | 0 | 0.0 | 4.3 | 0.00 | 0.00 | 0.00 | 71 | 1010.0 |
| 20260506043533 | 68 | 0 | 0.0 | 3.5 | 0.00 | 0.00 | 0.00 | 70 | 1010.2 |
| 20260506043036 | 68 | 0 | 0.0 | 3.5 | 0.00 | 0.00 | 0.00 | 70 | 1010.1 |
| 20260506042529 | 68 | 0 | 0.0 | 3.5 | 0.00 | 0.00 | 0.00 | 69 | 1010.0 |
| 20260506042029 | 69 | 0 | 0.0 | 2.6 | 0.00 | 0.00 | 0.00 | 69 | 1010.0 |
| 20260506041552 | 69 | 13 | 0.0 | 3.5 | 0.00 | 0.00 | 0.00 | 69 | 1010.0 |
| 20260506041030 | 70 | 0 | 0.0 | 3.5 | 0.00 | 0.00 | 0.00 | 68 | 1010.0 |
| 20260506040529 | 70 | 0 | 0.0 | 3.5 | 0.00 | 0.00 | 0.00 | 69 | 1009.8 |
| 20260506040040 | 70 | 338 | 0.0 | 2.6 | 0.00 | 0.00 | 0.00 | 69 | 1009.6 |
| 20260506035528 | 71 | 30 | 0.0 | 3.5 | 0.00 | 0.00 | 0.00 | 68 | 1009.4 |
| 20260506035029 | 71 | 0 | 0.0 | 3.5 | 0.00 | 0.00 | 0.00 | 69 | 1009.6 |
| 20260506034547 | 71 | 0 | 0.0 | 3.5 | 0.00 | 0.00 | 0.00 | 69 | 1009.5 |
| 20260506034029 | 72 | 0 | 0.0 | 3.5 | 0.00 | 0.00 | 0.00 | 69 | 1009.5 |
| 20260506033526 | 72 | 0 | 0.0 | 3.5 | 0.00 | 0.00 | 0.00 | 69 | 1009.5 |
| 20260506033039 | 72 | 316 | 0.0 | 4.3 | 0.00 | 0.00 | 0.00 | 69 | 1009.2 |
| 20260506032528 | 72 | 46 | 0.0 | 4.3 | 0.00 | 0.00 | 0.00 | 69 | 1009.1 |
| 20260506032031 | 72 | 0 | 0.0 | 3.5 | 0.00 | 0.00 | 0.00 | 69 | 1009.3 |
| 20260506031536 | 73 | 320 | 0.0 | 5.2 | 0.00 | 0.00 | 0.00 | 69 | 1009.0 |
| 20260506031029 | 73 | 0 | 0.0 | 5.2 | 0.00 | 0.00 | 0.00 | 69 | 1008.9 |
| 20260506030531 | 73 | 0 | 0.9 | 5.2 | 0.00 | 0.00 | 0.00 | 68 | 1008.9 |
| 20260506030051 | 73 | 304 | 0.0 | 2.6 | 0.00 | 0.00 | 0.00 | 68 | 1009.1 |
| 20260506025528 | 74 | 314 | 0.0 | 2.6 | 0.00 | 0.00 | 0.00 | 68 | 1008.9 |
| 20260506025028 | 74 | 0 | 0.0 | 2.6 | 0.00 | 0.00 | 0.00 | 67 | 1008.6 |
| 20260506024552 | 74 | 0 | 0.0 | 2.6 | 0.00 | 0.00 | 0.00 | 67 | 1008.4 |
| 20260506024031 | 75 | 40 | 0.0 | 2.6 | 0.00 | 0.00 | 0.00 | 67 | 1008.3 |
| 20260506023530 | 75 | 0 | 0.0 | 4.3 | 0.00 | 0.00 | 0.00 | 67 | 1008.1 |
| 20260506023041 | 75 | 0 | 0.0 | 4.3 | 0.00 | 0.00 | 0.00 | 66 | 1008.0 |
| 20260506022530 | 75 | 346 | 0.9 | 5.2 | 0.00 | 0.00 | 0.00 | 65 | 1007.9 |
| 20260506022030 | 75 | 248 | 0.9 | 5.2 | 0.00 | 0.00 | 0.00 | 65 | 1007.8 |
| 20260506021547 | 76 | 0 | 0.0 | 1.7 | 0.00 | 0.00 | 0.00 | 65 | 1007.4 |
| 20260506021031 | 76 | 0 | 0.0 | 2.6 | 0.00 | 0.00 | 0.00 | 64 | 1007.3 |
| 20260506020529 | 76 | 0 | 0.0 | 2.6 | 0.00 | 0.00 | 0.00 | 64 | 1007.3 |
| 20260506020036 | 76 | 0 | 0.0 | 3.5 | 0.00 | 0.00 | 0.00 | 64 | 1007.3 |
| 20260506015531 | 76 | 0 | 0.0 | 3.5 | 0.00 | 0.00 | 0.00 | 63 | 1007.2 |
| 20260506015029 | 77 | 0 | 0.0 | 3.5 | 0.00 | 0.00 | 0.00 | 63 | 1007.1 |
| 20260506014544 | 77 | 0 | 0.0 | 3.5 | 0.00 | 0.00 | 0.00 | 63 | 1007.2 |
| 20260506014030 | 77 | 0 | 0.0 | 2.6 | 0.00 | 0.00 | 0.00 | 63 | 1007.4 |
| 20260506013532 | 77 | 0 | 0.0 | 2.6 | 0.00 | 0.00 | 0.00 | 63 | 1007.1 |
| 20260506013046 | 78 | 0 | 0.0 | 2.6 | 0.00 | 0.00 | 0.00 | 62 | 1006.7 |
| 20260506012528 | 78 | 0 | 0.0 | 4.3 | 0.00 | 0.00 | 0.00 | 62 | 1006.7 |
| 20260506012031 | 78 | 360 | 0.0 | 4.3 | 0.00 | 0.00 | 0.00 | 62 | 1006.9 |
| 20260506011607 | 79 | 0 | 0.9 | 4.3 | 0.00 | 0.00 | 0.00 | 62 | 1007.4 |
| 20260506011031 | 79 | 317 | 0.0 | 6.1 | 0.00 | 0.00 | 0.00 | 62 | 1006.9 |
| 20260506010529 | 79 | 0 | 0.0 | 6.1 | 0.00 | 0.00 | 0.00 | 62 | 1006.4 |
| 20260506010037 | 80 | 281 | 0.0 | 4.3 | 0.00 | 0.00 | 0.00 | 61 | 1006.3 |
| 20260506005531 | 81 | 352 | 0.0 | 2.6 | 0.00 | 0.00 | 0.00 | 60 | 1006.4 |
| 20260506005033 | 81 | 0 | 0.0 | 0.9 | 0.00 | 0.00 | 0.00 | 60 | 1006.2 |
| 20260506004543 | 81 | 0 | 0.0 | 3.5 | 0.00 | 0.00 | 0.00 | 59 | 1006.3 |
| 20260506004029 | 82 | 0 | 0.0 | 3.5 | 0.00 | 0.00 | 0.00 | 59 | 1006.1 |
| 20260506003528 | 82 | 306 | 0.9 | 3.5 | 0.00 | 0.00 | 0.00 | 58 | 1006.1 |
| 20260506003043 | 82 | 0 | 0.0 | 1.7 | 0.00 | 0.00 | 0.00 | 58 | 1006.1 |
| 20260506002529 | 82 | 0 | 0.0 | 4.3 | 0.00 | 0.00 | 0.00 | 57 | 1006.1 |
| 20260506002030 | 83 | 0 | 0.0 | 4.3 | 0.00 | 0.00 | 0.00 | 57 | 1006.1 |
| 20260506001543 | 83 | 0 | 0.0 | 7.0 | 0.00 | 0.00 | 0.00 | 57 | 1006.1 |
| 20260506001031 | 83 | 319 | 0.9 | 7.0 | 0.00 | 0.00 | 0.00 | 56 | 1006.0 |
| 20260506000533 | 84 | 0 | 0.9 | 5.2 | 0.00 | 0.00 | 0.00 | 56 | 1005.9 |
| 20260506000046 | 85 | 293 | 0.9 | 5.2 | 0.00 | 0.00 | 0.00 | 55 | 1005.8 |
| 20260505235529 | 85 | 40 | 0.0 | 10.4 | 0.00 | 0.00 | 0.00 | 55 | 1005.5 |
| 20260505235029 | 86 | 293 | 0.0 | 10.4 | 0.00 | 0.00 | 0.00 | 54 | 1005.3 |
| 20260505234536 | 86 | 302 | 0.0 | 8.7 | 0.00 | 0.00 | 0.00 | 52 | 1005.4 |
| 20260505234031 | 87 | 315 | 2.6 | 8.7 | 0.00 | 0.00 | 0.00 | 50 | 1005.4 |
| 20260505233532 | 87 | 0 | 2.6 | 8.7 | 0.00 | 0.00 | 0.00 | 48 | 1005.3 |
| 20260505233042 | 88 | 294 | 1.7 | 8.7 | 0.00 | 0.00 | 0.00 | 48 | 1005.3 |
| 20260505232531 | 89 | 0 | 0.9 | 8.7 | 0.00 | 0.00 | 0.00 | 47 | 1005.2 |
| 20260505232028 | 90 | 317 | 0.9 | 8.7 | 0.00 | 0.00 | 0.00 | 46 | 1005.1 |
| 20260505231544 | 91 | 336 | 0.9 | 9.6 | 0.00 | 0.00 | 0.00 | 45 | 1004.8 |
| 20260505231030 | 91 | 316 | 0.9 | 9.6 | 0.00 | 0.00 | 0.00 | 47 | 1005.0 |
| 20260505230531 | 92 | 0 | 0.0 | 4.3 | 0.00 | 0.00 | 0.00 | 53 | 1004.6 |
| 20260505230038 | 92 | 0 | 0.9 | 6.1 | 0.00 | 0.00 | 0.00 | 52 | 1004.5 |
| 20260505225529 | 92 | 0 | 0.0 | 6.1 | 0.00 | 0.00 | 0.00 | 53 | 1004.5 |
| 20260505225030 | 92 | 186 | 0.0 | 6.1 | 0.00 | 0.00 | 0.00 | 52 | 1004.5 |
| 20260505224537 | 93 | 0 | 0.0 | 1.7 | 0.00 | 0.00 | 0.00 | 52 | 1004.5 |
| 20260505224031 | 93 | 272 | 0.0 | 2.6 | 0.00 | 0.00 | 0.00 | 52 | 1004.4 |
| 20260505223532 | 93 | 0 | 0.0 | 2.6 | 0.00 | 0.00 | 0.00 | 51 | 1004.5 |
| 20260505223044 | 93 | 0 | 0.0 | 3.5 | 0.00 | 0.00 | 0.00 | 52 | 1004.4 |
| 20260505222528 | 93 | 0 | 0.0 | 3.5 | 0.00 | 0.00 | 0.00 | 51 | 1004.3 |
| 20260505222031 | 93 | 193 | 0.9 | 3.5 | 0.00 | 0.00 | 0.00 | 50 | 1004.3 |
| 20260505221554 | 94 | 0 | 0.0 | 3.5 | 0.00 | 0.00 | 0.00 | 51 | 1004.3 |
| 20260505221030 | 94 | 0 | 0.0 | 3.5 | 0.00 | 0.00 | 0.00 | 50 | 1004.4 |
| 20260505220533 | 94 | 185 | 0.0 | 2.6 | 0.00 | 0.00 | 0.00 | 50 | 1004.3 |
| 20260505220054 | 94 | 182 | 0.0 | 2.6 | 0.00 | 0.00 | 0.00 | 50 | 1004.3 |
| 20260505215531 | 94 | 211 | 0.0 | 3.5 | 0.00 | 0.00 | 0.00 | 50 | 1004.3 |
| 20260505215030 | 94 | 0 | 0.0 | 3.5 | 0.00 | 0.00 | 0.00 | 50 | 1004.4 |
| 20260505214551 | 94 | 231 | 0.0 | 2.6 | 0.00 | 0.00 | 0.00 | 50 | 1004.5 |
| 20260505214030 | 94 | 0 | 0.0 | 2.6 | 0.00 | 0.00 | 0.00 | 51 | 1004.4 |
| 20260505213528 | 94 | 144 | 0.0 | 3.5 | 0.00 | 0.00 | 0.00 | 52 | 1004.6 |
| 20260505213040 | 93 | 0 | 0.0 | 7.0 | 0.00 | 0.00 | 0.00 | 53 | 1004.7 |
| 20260505212529 | 93 | 279 | 0.9 | 7.0 | 0.00 | 0.00 | 0.00 | 52 | 1004.7 |
| 20260505212029 | 93 | 163 | 0.0 | 7.8 | 0.00 | 0.00 | 0.00 | 52 | 1004.7 |
| 20260505211539 | 92 | 5 | 0.9 | 7.8 | 0.00 | 0.00 | 0.00 | 53 | 1004.9 |
| 20260505211029 | 92 | 188 | 0.9 | 6.1 | 0.00 | 0.00 | 0.00 | 54 | 1004.9 |
| 20260505210528 | 92 | 164 | 0.0 | 7.0 | 0.00 | 0.00 | 0.00 | 54 | 1005.0 |
| 20260505210049 | 92 | 258 | 0.9 | 7.0 | 0.00 | 0.00 | 0.00 | 55 | 1005.0 |
| 20260505205533 | 91 | 198 | 0.9 | 7.0 | 0.00 | 0.00 | 0.00 | 55 | 1005.0 |
| 20260505205026 | 91 | 203 | 0.9 | 5.2 | 0.00 | 0.00 | 0.00 | 57 | 1005.1 |
| 20260505204538 | 90 | 134 | 0.9 | 5.2 | 0.00 | 0.00 | 0.00 | 56 | 1005.3 |
| 20260505204029 | 90 | 189 | 0.9 | 4.3 | 0.00 | 0.00 | 0.00 | 57 | 1005.3 |
| 20260505203526 | 90 | 0 | 0.9 | 7.0 | 0.00 | 0.00 | 0.00 | 57 | 1005.5 |
| 20260505203039 | 90 | 262 | 0.9 | 7.0 | 0.00 | 0.00 | 0.00 | 58 | 1005.4 |
| 20260505202526 | 89 | 174 | 0.9 | 6.1 | 0.00 | 0.00 | 0.00 | 58 | 1005.4 |
| 20260505202025 | 89 | 0 | 0.9 | 6.1 | 0.00 | 0.00 | 0.00 | 59 | 1005.4 |
| 20260505201541 | 89 | 160 | 0.9 | 6.1 | 0.00 | 0.00 | 0.00 | 59 | 1005.5 |
| 20260505201026 | 89 | 283 | 0.9 | 11.3 | 0.00 | 0.00 | 0.00 | 60 | 1005.6 |
| 20260505200526 | 89 | 0 | 1.7 | 11.3 | 0.00 | 0.00 | 0.00 | 59 | 1005.5 |
| 20260505200037 | 89 | 266 | 2.6 | 8.7 | 0.00 | 0.00 | 0.00 | 58 | 1005.6 |
| 20260505195525 | 89 | 257 | 1.7 | 7.8 | 0.00 | 0.00 | 0.00 | 58 | 1005.6 |
| 20260505195025 | 89 | 190 | 0.9 | 7.8 | 0.00 | 0.00 | 0.00 | 60 | 1005.6 |
| 20260505194535 | 88 | 200 | 0.9 | 7.8 | 0.00 | 0.00 | 0.00 | 60 | 1005.7 |
| 20260505194029 | 88 | 216 | 0.9 | 4.3 | 0.00 | 0.00 | 0.00 | 60 | 1005.7 |
| 20260505193526 | 88 | 254 | 0.9 | 7.0 | 0.00 | 0.00 | 0.00 | 61 | 1005.8 |
| 20260505193042 | 87 | 174 | 0.9 | 8.7 | 0.00 | 0.00 | 0.00 | 61 | 1005.6 |
| 20260505192526 | 87 | 262 | 0.9 | 8.7 | 0.00 | 0.00 | 0.00 | 61 | 1005.6 |
| 20260505192028 | 87 | 236 | 0.9 | 7.0 | 0.00 | 0.00 | 0.00 | 61 | 1005.7 |
| 20260505191542 | 87 | 175 | 0.0 | 7.0 | 0.00 | 0.00 | 0.00 | 63 | 1005.7 |
| 20260505191027 | 86 | 288 | 0.9 | 4.3 | 0.00 | 0.00 | 0.00 | 63 | 1005.7 |
| 20260505190529 | 86 | 165 | 0.0 | 6.1 | 0.00 | 0.00 | 0.00 | 65 | 1005.6 |
| 20260505190039 | 86 | 244 | 0.9 | 6.1 | 0.00 | 0.00 | 0.00 | 65 | 1005.8 |
| 20260505185526 | 85 | 158 | 0.9 | 7.8 | 0.00 | 0.00 | 0.00 | 65 | 1005.8 |
| 20260505185029 | 85 | 188 | 0.9 | 9.6 | 0.00 | 0.00 | 0.00 | 65 | 1005.8 |
| 20260505184536 | 85 | 0 | 1.7 | 9.6 | 0.00 | 0.00 | 0.00 | 65 | 1006.0 |
| 20260505184027 | 85 | 239 | 0.9 | 5.2 | 0.00 | 0.00 | 0.00 | 65 | 1005.8 |
| 20260505183527 | 85 | 167 | 0.0 | 6.1 | 0.00 | 0.00 | 0.00 | 66 | 1005.9 |
| 20260505183047 | 85 | 224 | 0.9 | 6.1 | 0.00 | 0.00 | 0.00 | 66 | 1005.9 |
| 20260505182526 | 84 | 194 | 0.0 | 7.8 | 0.00 | 0.00 | 0.00 | 66 | 1005.8 |
| 20260505182026 | 84 | 0 | 1.7 | 7.8 | 0.00 | 0.00 | 0.00 | 67 | 1005.9 |
| 20260505181536 | 84 | 170 | 0.9 | 5.2 | 0.00 | 0.00 | 0.00 | 66 | 1006.0 |
| 20260505181026 | 84 | 184 | 0.9 | 6.1 | 0.00 | 0.00 | 0.00 | 66 | 1006.0 |
| 20260505180526 | 84 | 0 | 0.9 | 6.1 | 0.00 | 0.00 | 0.00 | 66 | 1006.0 |
| 20260505180041 | 84 | 250 | 0.9 | 6.1 | 0.00 | 0.00 | 0.00 | 66 | 1006.1 |
| 20260505175526 | 84 | 216 | 0.0 | 5.2 | 0.00 | 0.00 | 0.00 | 66 | 1006.0 |
| 20260505175031 | 84 | 0 | 0.9 | 7.8 | 0.00 | 0.00 | 0.00 | 67 | 1006.1 |
| 20260505174541 | 84 | 244 | 0.9 | 7.8 | 0.00 | 0.00 | 0.00 | 67 | 1006.1 |
| 20260505174032 | 84 | 222 | 0.9 | 7.0 | 0.00 | 0.00 | 0.00 | 68 | 1006.1 |
| 20260505173528 | 83 | 228 | 0.9 | 7.0 | 0.00 | 0.00 | 0.00 | 69 | 1006.1 |
| 20260505173038 | 83 | 0 | 0.9 | 4.3 | 0.00 | 0.00 | 0.00 | 68 | 1006.1 |
| 20260505172530 | 83 | 290 | 0.9 | 4.3 | 0.00 | 0.00 | 0.00 | 69 | 1006.1 |
| 20260505172031 | 83 | 214 | 0.9 | 6.1 | 0.00 | 0.00 | 0.00 | 69 | 1006.1 |
| 20260505171536 | 83 | 234 | 0.9 | 7.8 | 0.00 | 0.00 | 0.00 | 68 | 1006.0 |
| 20260505171030 | 82 | 208 | 1.7 | 7.8 | 0.00 | 0.00 | 0.00 | 68 | 1006.1 |
| 20260505170530 | 82 | 251 | 0.9 | 6.1 | 0.00 | 0.00 | 0.00 | 69 | 1006.1 |
| 20260505170036 | 82 | 211 | 0.9 | 7.0 | 0.00 | 0.00 | 0.00 | 70 | 1006.3 |
| 20260505165530 | 82 | 270 | 0.9 | 7.0 | 0.00 | 0.00 | 0.00 | 70 | 1006.2 |
| 20260505165030 | 81 | 0 | 0.9 | 7.0 | 0.00 | 0.00 | 0.00 | 70 | 1006.3 |
| 20260505164554 | 81 | 214 | 0.9 | 6.1 | 0.00 | 0.00 | 0.00 | 70 | 1006.2 |
| 20260505164030 | 81 | 175 | 0.9 | 8.7 | 0.00 | 0.00 | 0.00 | 71 | 1006.2 |
| 20260505163531 | 81 | 260 | 0.9 | 8.7 | 0.00 | 0.00 | 0.00 | 71 | 1006.2 |
| 20260505163037 | 81 | 305 | 1.7 | 7.0 | 0.00 | 0.00 | 0.00 | 71 | 1006.4 |
| 20260505162530 | 80 | 210 | 0.0 | 6.1 | 0.00 | 0.00 | 0.00 | 72 | 1006.2 |
| 20260505162031 | 80 | 227 | 1.7 | 7.0 | 0.00 | 0.00 | 0.00 | 72 | 1006.3 |
| 20260505161553 | 80 | 212 | 0.9 | 7.0 | 0.00 | 0.00 | 0.00 | 73 | 1006.4 |
| 20260505161029 | 80 | 157 | 1.7 | 7.8 | 0.00 | 0.00 | 0.00 | 73 | 1006.1 |
| 20260505160529 | 79 | 0 | 0.9 | 8.7 | 0.00 | 0.00 | 0.00 | 74 | 1006.0 |
| 20260505153046 | 78 | 169 | 1.7 | 7.8 | 0.00 | 0.00 | 0.00 | 76 | 1005.8 |
| 20260505152530 | 77 | 248 | 0.0 | 7.8 | 0.00 | 0.00 | 0.00 | 77 | 1006.0 |
| 20260505152028 | 77 | 0 | 0.9 | 7.8 | 0.00 | 0.00 | 0.00 | 78 | 1006.0 |
| 20260505151540 | 76 | 0 | 0.9 | 7.0 | 0.00 | 0.00 | 0.00 | 78 | 1006.1 |
| 20260505151028 | 76 | 0 | 0.9 | 7.0 | 0.00 | 0.00 | 0.00 | 78 | 1006.2 |
| 20260505150529 | 76 | 205 | 0.9 | 4.3 | 0.00 | 0.00 | 0.00 | 78 | 1006.1 |
| 20260505140532 | 73 | 0 | 0.0 | 3.5 | 0.00 | 0.00 | 0.00 | 83 | 1005.8 |
| 20260505125028 | 71 | 173 | 0.9 | 6.1 | 0.00 | 0.00 | 0.00 | 84 | 1005.6 |
| 20260505124547 | 71 | 164 | 0.0 | 6.1 | 0.00 | 0.00 | 0.00 | 84 | 1005.6 |
| 20260505124029 | 71 | 161 | 0.9 | 6.1 | 0.00 | 0.00 | 0.00 | 84 | 1005.6 |
| 20260505123529 | 71 | 0 | 0.9 | 9.6 | 0.00 | 0.00 | 0.00 | 84 | 1005.5 |
| 20260505123037 | 71 | 0 | 0.0 | 9.6 | 0.00 | 0.00 | 0.00 | 84 | 1005.3 |
| 20260505122530 | 71 | 0 | 0.9 | 9.6 | 0.00 | 0.00 | 0.00 | 84 | 1005.1 |
| 20260505122029 | 71 | 155 | 0.0 | 7.8 | 0.00 | 0.00 | 0.00 | 84 | 1005.1 |
| 20260505121537 | 71 | 0 | 0.0 | 7.8 | 0.00 | 0.00 | 0.00 | 84 | 1004.9 |
| 20260505121029 | 71 | 0 | 0.0 | 8.7 | 0.00 | 0.00 | 0.00 | 84 | 1005.0 |
| 20260505120529 | 71 | 0 | 0.9 | 8.7 | 0.00 | 0.00 | 0.00 | 84 | 1005.2 |
| 20260505120054 | 71 | 182 | 0.9 | 5.2 | 0.00 | 0.00 | 0.00 | 84 | 1005.0 |
| 20260505115528 | 71 | 154 | 0.9 | 7.8 | 0.00 | 0.00 | 0.00 | 84 | 1005.1 |
| 20260505115032 | 71 | 217 | 0.9 | 8.7 | 0.00 | 0.00 | 0.00 | 84 | 1005.1 |
| 20260505114542 | 71 | 217 | 0.0 | 8.7 | 0.00 | 0.00 | 0.00 | 84 | 1005.0 |
| 20260505114029 | 71 | 0 | 0.9 | 3.5 | 0.00 | 0.00 | 0.00 | 84 | 1004.9 |
| 20260505113530 | 71 | 0 | 0.0 | 5.2 | 0.00 | 0.00 | 0.00 | 84 | 1005.0 |
| 20260505113054 | 71 | 230 | 0.9 | 5.2 | 0.00 | 0.00 | 0.00 | 84 | 1004.9 |
| 20260505112529 | 71 | 0 | 0.0 | 5.2 | 0.00 | 0.00 | 0.00 | 84 | 1004.6 |
| 20260505112029 | 71 | 0 | 0.0 | 7.8 | 0.00 | 0.00 | 0.00 | 84 | 1004.7 |
| 20260505111537 | 71 | 178 | 0.9 | 7.8 | 0.00 | 0.00 | 0.00 | 84 | 1004.6 |
| 20260505111029 | 71 | 207 | 0.9 | 5.2 | 0.00 | 0.00 | 0.00 | 84 | 1004.8 |
| 20260505110528 | 71 | 0 | 0.0 | 5.2 | 0.00 | 0.00 | 0.00 | 84 | 1004.9 |
| 20260505102030 | 71 | 0 | 0.0 | 7.0 | 0.00 | 0.00 | 0.00 | 84 | 1004.9 |
| 20260505101542 | 71 | 180 | 0.0 | 7.0 | 0.00 | 0.00 | 0.00 | 84 | 1005.0 |
| 20260505101029 | 71 | 234 | 1.7 | 7.0 | 0.00 | 0.00 | 0.00 | 84 | 1004.8 |
| 20260505100531 | 71 | 172 | 0.0 | 6.1 | 0.00 | 0.00 | 0.00 | 84 | 1005.0 |
| 20260505100038 | 71 | 164 | 0.9 | 4.3 | 0.00 | 0.00 | 0.00 | 84 | 1005.0 |
| 20260505095528 | 71 | 184 | 0.9 | 5.2 | 0.00 | 0.00 | 0.00 | 84 | 1005.0 |
| 20260505095030 | 71 | 0 | 0.9 | 5.2 | 0.00 | 0.00 | 0.00 | 84 | 1005.1 |
| 20260505094537 | 71 | 209 | 0.9 | 7.8 | 0.00 | 0.00 | 0.00 | 84 | 1005.0 |
| 20260505094029 | 71 | 178 | 0.9 | 7.8 | 0.00 | 0.00 | 0.00 | 84 | 1005.2 |
| 20260505093530 | 71 | 0 | 0.0 | 6.1 | 0.00 | 0.00 | 0.00 | 84 | 1005.1 |
| 20260505093037 | 71 | 0 | 0.0 | 6.1 | 0.00 | 0.00 | 0.00 | 84 | 1005.3 |
| 20260505092529 | 71 | 0 | 0.9 | 8.7 | 0.00 | 0.00 | 0.00 | 84 | 1005.4 |
| 20260505092030 | 71 | 0 | 0.0 | 8.7 | 0.00 | 0.00 | 0.00 | 84 | 1005.4 |
| 20260505091536 | 71 | 0 | 0.9 | 8.7 | 0.00 | 0.00 | 0.00 | 84 | 1005.4 |
| 20260505091029 | 71 | 213 | 0.9 | 6.1 | 0.00 | 0.00 | 0.00 | 84 | 1005.3 |
| 20260505090529 | 71 | 155 | 0.9 | 5.2 | 0.00 | 0.00 | 0.00 | 83 | 1005.5 |
| 20260505090043 | 71 | 275 | 0.0 | 6.1 | 0.00 | 0.00 | 0.00 | 83 | 1005.3 |
| 20260505085528 | 71 | 111 | 0.9 | 7.0 | 0.00 | 0.00 | 0.00 | 83 | 1005.2 |
| 20260505085029 | 71 | 0 | 0.9 | 7.0 | 0.00 | 0.00 | 0.00 | 83 | 1005.3 |
| 20260505084545 | 71 | 198 | 0.9 | 7.0 | 0.00 | 0.00 | 0.00 | 83 | 1005.2 |
| 20260505084028 | 71 | 0 | 0.9 | 7.0 | 0.00 | 0.00 | 0.00 | 83 | 1005.4 |
| 20260505083528 | 71 | 167 | 0.9 | 7.0 | 0.00 | 0.00 | 0.00 | 83 | 1005.5 |
| 20260505083047 | 71 | 260 | 0.9 | 6.1 | 0.00 | 0.00 | 0.00 | 82 | 1005.4 |
| 20260505082529 | 71 | 0 | 0.9 | 11.3 | 0.00 | 0.00 | 0.00 | 82 | 1005.5 |
| 20260505082030 | 71 | 194 | 0.9 | 11.3 | 0.00 | 0.00 | 0.00 | 82 | 1005.5 |
| 20260505081541 | 71 | 0 | 1.7 | 5.2 | 0.00 | 0.00 | 0.00 | 82 | 1005.5 |
| 20260505081029 | 71 | 0 | 1.7 | 13.0 | 0.00 | 0.00 | 0.00 | 81 | 1005.5 |
| 20260505080530 | 72 | 215 | 0.9 | 13.0 | 0.00 | 0.00 | 0.00 | 81 | 1005.6 |
| 20260505080042 | 72 | 126 | 1.7 | 11.3 | 0.00 | 0.00 | 0.00 | 81 | 1005.5 |
| 20260505075528 | 72 | 0 | 0.9 | 11.3 | 0.00 | 0.00 | 0.00 | 81 | 1005.5 |
| 20260505075028 | 72 | 190 | 0.9 | 5.2 | 0.00 | 0.00 | 0.00 | 80 | 1005.7 |
| 20260505074542 | 72 | 197 | 0.0 | 8.7 | 0.00 | 0.00 | 0.00 | 80 | 1005.8 |
| 20260505074028 | 72 | 0 | 0.9 | 8.7 | 0.00 | 0.00 | 0.00 | 80 | 1005.8 |
| 20260505073528 | 72 | 192 | 0.9 | 6.1 | 0.00 | 0.00 | 0.00 | 80 | 1005.9 |
| 20260505073040 | 72 | 0 | 0.0 | 4.3 | 0.00 | 0.00 | 0.00 | 79 | 1006.1 |
| 20260505072530 | 72 | 0 | 0.9 | 7.0 | 0.00 | 0.00 | 0.00 | 79 | 1006.4 |
| 20260505072029 | 72 | 0 | 0.9 | 7.0 | 0.00 | 0.00 | 0.00 | 79 | 1006.4 |
| 20260505071538 | 72 | 0 | 0.9 | 7.8 | 0.00 | 0.00 | 0.00 | 79 | 1006.5 |
| 20260505071029 | 73 | 145 | 1.7 | 7.8 | 0.00 | 0.00 | 0.00 | 79 | 1006.5 |
| 20260505070531 | 73 | 164 | 0.9 | 7.0 | 0.00 | 0.00 | 0.00 | 79 | 1006.6 |
| 20260505070043 | 73 | 0 | 0.0 | 11.3 | 0.00 | 0.00 | 0.00 | 78 | 1006.6 |
| 20260505065529 | 73 | 0 | 0.0 | 11.3 | 0.00 | 0.00 | 0.00 | 78 | 1006.7 |
| 20260505065029 | 73 | 194 | 0.9 | 7.0 | 0.00 | 0.00 | 0.00 | 78 | 1006.8 |
| 20260505064551 | 73 | 220 | 0.0 | 6.1 | 0.00 | 0.00 | 0.00 | 78 | 1006.9 |
| 20260505064028 | 73 | 0 | 0.9 | 6.1 | 0.00 | 0.00 | 0.00 | 78 | 1006.9 |
| 20260505063528 | 73 | 327 | 0.0 | 5.2 | 0.00 | 0.00 | 0.00 | 77 | 1006.9 |
| 20260505063042 | 73 | 169 | 0.9 | 12.2 | 0.00 | 0.00 | 0.00 | 77 | 1006.9 |
| 20260505062529 | 73 | 196 | 0.9 | 12.2 | 0.00 | 0.00 | 0.00 | 77 | 1006.9 |
| 20260505062030 | 73 | 184 | 0.0 | 7.0 | 0.00 | 0.00 | 0.00 | 77 | 1006.9 |
| 20260505061542 | 73 | 147 | 0.9 | 4.3 | 0.00 | 0.00 | 0.00 | 77 | 1007.0 |
| 20260505061029 | 73 | 180 | 0.0 | 4.3 | 0.00 | 0.00 | 0.00 | 76 | 1007.0 |
| 20260505060529 | 73 | 184 | 0.9 | 4.3 | 0.00 | 0.00 | 0.00 | 76 | 1006.9 |
| 20260505060040 | 73 | 0 | 0.0 | 6.1 | 0.00 | 0.00 | 0.00 | 76 | 1006.9 |
| 20260505055529 | 73 | 0 | 0.9 | 6.1 | 0.00 | 0.00 | 0.00 | 76 | 1006.9 |
| 20260505055029 | 73 | 0 | 0.9 | 6.1 | 0.00 | 0.00 | 0.00 | 76 | 1006.9 |
| 20260505054538 | 73 | 190 | 0.9 | 5.2 | 0.00 | 0.00 | 0.00 | 76 | 1006.9 |
| 20260505054032 | 73 | 98 | 0.9 | 5.2 | 0.00 | 0.00 | 0.00 | 75 | 1007.0 |
| 20260505053533 | 73 | 194 | 0.9 | 7.0 | 0.00 | 0.00 | 0.00 | 75 | 1007.0 |
| 20260505053108 | 73 | 186 | 0.9 | 7.0 | 0.00 | 0.00 | 0.00 | 75 | 1007.0 |
| 20260505052528 | 73 | 138 | 0.0 | 6.1 | 0.00 | 0.00 | 0.00 | 75 | 1007.0 |
| 20260505052032 | 73 | 217 | 0.9 | 9.6 | 0.00 | 0.00 | 0.00 | 75 | 1007.2 |
| 20260505051536 | 73 | 0 | 0.9 | 9.6 | 0.00 | 0.00 | 0.00 | 74 | 1007.2 |
| 20260505051028 | 73 | 195 | 0.9 | 8.7 | 0.00 | 0.00 | 0.00 | 74 | 1007.1 |
| 20260505050528 | 73 | 0 | 0.9 | 6.1 | 0.00 | 0.00 | 0.00 | 74 | 1007.1 |